Time,TemperatureF,DewpointF,PressureIn,WindDirection,WindDirectionDegrees,WindSpeedMPH,WindSpeedGustMPH,Humidity,HourlyPrecipIn,Conditions,Clouds,dailyrainin,SoftwareType,DateUTC
2013-03-31 00:00:00,34.0,14.4,30.13,SW,230,8.7,14.5,44,0.00,,CLR,0.04,VWS V14.01,2013-03-31 06:00:00,
2013-03-31 00:05:00,34.0,14.4,30.13,SW,224,11.9,13.6,44,0.00,,CLR,0.00,VWS V14.01,2013-03-31 06:05:00,
2013-03-31 00:10:00,33.3,14.2,30.13,WSW,238,11.4,13.6,45,0.00,,CLR,0.00,VWS V14.01,2013-03-31 06:10:00,
2013-03-31 00:15:00,33.4,14.4,30.13,SW,231,8.1,13.6,45,0.00,,CLR,0.00,VWS V14.01,2013-03-31 06:15:00,
2013-03-31 00:20:00,34.0,13.9,30.13,SW,231,10.5,13.6,43,0.00,,CLR,0.00,VWS V14.01,2013-03-31 06:20:00,
2013-03-31 00:25:00,33.8,13.7,30.13,SW,225,10.1,13.6,43,0.00,,CLR,0.00,VWS V14.01,2013-03-31 06:25:00,
2013-03-31 00:30:00,33.6,14.1,30.13,WSW,239,8.1,13.6,44,0.00,,CLR,0.00,VWS V14.01,2013-03-31 06:30:00,
2013-03-31 00:35:00,33.8,13.7,30.13,SW,232,8.1,14.5,43,0.00,,CLR,0.00,VWS V14.01,2013-03-31 06:35:00,
2013-03-31 00:40:00,33.6,13.5,30.13,SW,236,11.4,14.5,43,0.00,,CLR,0.00,VWS V14.01,2013-03-31 06:40:00,
2013-03-31 00:45:00,33.3,13.7,30.10,WSW,246,11.9,14.5,44,0.00,,CLR,0.00,VWS V14.01,2013-03-31 06:45:00,
2013-03-31 00:50:00,33.1,13.6,30.10,SW,229,10.5,14.5,44,0.00,,CLR,0.00,VWS V14.01,2013-03-31 06:50:00,
2013-03-31 00:55:00,33.3,13.2,30.10,WSW,237,8.7,14.5,43,0.00,,CLR,0.00,VWS V14.01,2013-03-31 06:55:00,
2013-03-31 01:00:00,33.1,13.0,30.10,WSW,243,8.7,14.5,43,0.00,,CLR,0.00,VWS V14.01,2013-03-31 07:00:00,
2013-03-31 01:05:00,33.3,13.2,30.10,West,263,11.0,12.3,43,0.00,,CLR,0.00,VWS V14.01,2013-03-31 07:05:00,
2013-03-31 01:10:00,33.4,13.4,30.10,WSW,251,8.3,12.3,43,0.00,,CLR,0.00,VWS V14.01,2013-03-31 07:10:00,
2013-03-31 01:15:00,33.6,13.0,30.10,WSW,244,7.6,13.2,42,0.00,,CLR,0.00,VWS V14.01,2013-03-31 07:15:00,
2013-03-31 01:20:00,33.8,13.1,30.10,SW,234,6.3,13.2,42,0.00,,CLR,0.00,VWS V14.01,2013-03-31 07:20:00,
2013-03-31 01:25:00,33.6,13.0,30.10,SW,229,10.5,13.2,42,0.00,,CLR,0.00,VWS V14.01,2013-03-31 07:25:00,
2013-03-31 01:30:00,33.1,13.0,30.10,SW,233,11.0,13.2,43,0.00,,CLR,0.00,VWS V14.01,2013-03-31 07:30:00,
2013-03-31 01:35:00,32.7,12.7,30.10,SW,227,5.8,13.2,43,0.00,,CLR,0.00,VWS V14.01,2013-03-31 07:35:00,
2013-03-31 01:40:00,32.9,12.9,30.10,SW,230,10.5,13.2,43,0.00,,CLR,0.00,VWS V14.01,2013-03-31 07:40:00,
2013-03-31 01:45:00,33.1,13.0,30.10,WSW,238,8.1,13.2,43,0.00,,CLR,0.00,VWS V14.01,2013-03-31 07:45:00,
2013-03-31 01:50:00,33.4,13.4,30.10,WSW,238,12.8,13.2,43,0.00,,CLR,0.00,VWS V14.01,2013-03-31 07:50:00,
2013-03-31 01:55:00,33.4,13.4,30.10,WSW,256,8.3,15.0,43,0.00,,CLR,0.00,VWS V14.01,2013-03-31 07:55:00,
2013-03-31 02:00:00,33.4,12.8,30.10,WSW,252,8.3,15.0,42,0.00,,CLR,0.00,VWS V14.01,2013-03-31 08:00:00,
2013-03-31 02:05:00,33.8,13.1,30.10,WSW,239,10.5,13.2,42,0.00,,CLR,0.00,VWS V14.01,2013-03-31 08:05:00,
2013-03-31 02:10:00,34.0,13.3,30.10,WSW,239,10.5,16.8,42,0.00,,CLR,0.00,VWS V14.01,2013-03-31 08:10:00,
2013-03-31 02:15:00,33.8,13.1,30.07,SW,229,9.6,16.8,42,0.00,,CLR,0.00,VWS V14.01,2013-03-31 08:15:00,
2013-03-31 02:20:00,33.8,13.1,30.07,SW,236,12.8,16.8,42,0.00,,CLR,0.00,VWS V14.01,2013-03-31 08:20:00,
2013-03-31 02:25:00,33.8,13.1,30.07,WSW,254,15.4,16.8,42,0.00,,CLR,0.00,VWS V14.01,2013-03-31 08:25:00,
2013-03-31 02:30:00,33.8,13.1,30.07,WSW,243,12.8,16.8,42,0.00,,CLR,0.00,VWS V14.01,2013-03-31 08:30:00,
2013-03-31 02:35:00,34.0,12.8,30.07,WSW,244,11.0,13.2,41,0.00,,CLR,0.00,VWS V14.01,2013-03-31 08:35:00,
2013-03-31 02:40:00,34.0,12.8,30.07,WSW,251,12.8,14.5,41,0.00,,CLR,0.00,VWS V14.01,2013-03-31 08:40:00,
2013-03-31 02:45:00,34.9,13.6,30.07,SW,235,10.1,14.5,41,0.00,,CLR,0.00,VWS V14.01,2013-03-31 08:45:00,
2013-03-31 02:50:00,34.3,13.1,30.07,WSW,252,12.3,14.5,41,0.00,,CLR,0.00,VWS V14.01,2013-03-31 08:50:00,
2013-03-31 02:55:00,34.2,12.9,30.07,WSW,247,8.3,14.5,41,0.00,,CLR,0.00,VWS V14.01,2013-03-31 08:55:00,
2013-03-31 03:00:00,33.3,12.7,30.07,WSW,239,13.2,14.5,42,0.00,,CLR,0.00,VWS V14.01,2013-03-31 09:00:00,
2013-03-31 03:05:00,33.3,12.7,30.07,WSW,244,11.0,15.4,42,0.00,,CLR,0.00,VWS V14.01,2013-03-31 09:05:00,
2013-03-31 03:10:00,33.8,12.6,30.07,WSW,248,10.1,15.4,41,0.00,,CLR,0.00,VWS V14.01,2013-03-31 09:10:00,
2013-03-31 03:15:00,33.3,12.7,30.07,WSW,243,12.8,15.4,42,0.00,,CLR,0.00,VWS V14.01,2013-03-31 09:15:00,
2013-03-31 03:20:00,33.6,13.0,30.07,SW,229,16.3,17.4,42,0.00,,CLR,0.00,VWS V14.01,2013-03-31 09:20:00,
2013-03-31 03:25:00,33.8,12.6,30.07,WSW,252,13.2,17.4,41,0.00,,CLR,0.00,VWS V14.01,2013-03-31 09:25:00,
2013-03-31 03:29:00,33.8,12.6,30.07,WSW,238,10.1,17.4,41,0.00,,CLR,0.00,VWS V14.01,2013-03-31 09:29:00,
2013-03-31 03:35:00,33.8,12.6,30.07,SW,234,14.5,14.5,41,0.00,,CLR,0.00,VWS V14.01,2013-03-31 09:35:00,
2013-03-31 03:40:00,33.8,12.6,30.07,WSW,240,12.8,15.4,41,0.00,,CLR,0.00,VWS V14.01,2013-03-31 09:40:00,
2013-03-31 03:45:00,33.4,12.3,30.07,West,274,13.2,15.4,41,0.00,,CLR,0.00,VWS V14.01,2013-03-31 09:45:00,
2013-03-31 03:50:00,33.6,12.4,30.07,West,272,10.5,15.4,41,0.00,,CLR,0.00,VWS V14.01,2013-03-31 09:50:00,
2013-03-31 03:55:00,33.1,12.5,30.07,WSW,250,10.5,15.4,42,0.00,,CLR,0.00,VWS V14.01,2013-03-31 09:55:00,
2013-03-31 04:00:00,33.4,12.8,30.07,WSW,256,8.7,15.4,42,0.00,,CLR,0.00,VWS V14.01,2013-03-31 10:00:00,
2013-03-31 04:05:00,33.3,12.7,30.07,WSW,249,10.5,14.1,42,0.00,,CLR,0.00,VWS V14.01,2013-03-31 10:05:00,
2013-03-31 04:10:00,32.9,12.3,30.07,WSW,254,11.0,14.1,42,0.00,,CLR,0.00,VWS V14.01,2013-03-31 10:10:00,
2013-03-31 04:15:00,33.1,12.5,30.04,SW,234,10.5,15.0,42,0.00,,CLR,0.00,VWS V14.01,2013-03-31 10:15:00,
2013-03-31 04:20:00,33.4,12.8,30.04,WSW,247,12.3,15.0,42,0.00,,CLR,0.00,VWS V14.01,2013-03-31 10:20:00,
2013-03-31 04:25:00,33.6,12.4,30.04,SW,231,8.3,15.0,41,0.00,,CLR,0.00,VWS V14.01,2013-03-31 10:25:00,
2013-03-31 04:30:00,33.8,12.6,30.04,WSW,258,8.3,15.0,41,0.00,,CLR,0.00,VWS V14.01,2013-03-31 10:30:00,
2013-03-31 04:35:00,33.3,12.1,30.04,WSW,243,8.7,12.8,41,0.00,,CLR,0.00,VWS V14.01,2013-03-31 10:35:00,
2013-03-31 04:40:00,33.3,12.7,30.04,WSW,240,8.1,12.8,42,0.00,,CLR,0.00,VWS V14.01,2013-03-31 10:40:00,
2013-03-31 04:45:00,32.9,12.3,30.04,WSW,238,10.5,12.8,42,0.00,,CLR,0.00,VWS V14.01,2013-03-31 10:45:00,
2013-03-31 04:50:00,33.3,12.1,30.04,SW,226,8.3,12.8,41,0.00,,CLR,0.00,VWS V14.01,2013-03-31 10:50:00,
2013-03-31 04:55:00,33.6,12.4,30.04,WSW,237,8.1,12.8,41,0.00,,CLR,0.00,VWS V14.01,2013-03-31 10:55:00,
2013-03-31 05:00:00,34.0,12.8,30.04,WSW,243,10.1,12.8,41,0.00,,CLR,0.00,VWS V14.01,2013-03-31 11:00:00,
2013-03-31 05:05:00,34.5,13.3,30.04,WSW,249,11.0,11.0,41,0.00,,CLR,0.00,VWS V14.01,2013-03-31 11:05:00,
2013-03-31 05:10:00,33.4,12.3,30.04,WSW,241,8.7,11.0,41,0.00,,CLR,0.00,VWS V14.01,2013-03-31 11:10:00,
2013-03-31 05:15:00,33.3,12.7,30.04,WSW,256,11.0,11.0,42,0.00,,CLR,0.00,VWS V14.01,2013-03-31 11:15:00,
2013-03-31 05:20:00,33.4,12.3,30.04,WSW,240,11.0,12.3,41,0.00,,CLR,0.00,VWS V14.01,2013-03-31 11:20:00,
2013-03-31 05:25:00,33.3,12.7,30.04,WSW,244,8.7,12.3,42,0.00,,CLR,0.00,VWS V14.01,2013-03-31 11:25:00,
2013-03-31 05:30:00,33.4,12.3,30.07,WNW,284,5.4,12.3,41,0.00,,CLR,0.00,VWS V14.01,2013-03-31 11:30:00,
2013-03-31 05:35:00,33.8,12.6,30.07,WSW,237,6.3,8.7,41,0.00,,CLR,0.00,VWS V14.01,2013-03-31 11:35:00,
2013-03-31 05:40:00,33.3,12.1,30.07,SW,222,6.7,9.2,41,0.00,,CLR,0.00,VWS V14.01,2013-03-31 11:40:00,
2013-03-31 05:45:00,32.7,12.2,30.07,SW,235,8.7,9.2,42,0.00,,CLR,0.00,VWS V14.01,2013-03-31 11:45:00,
2013-03-31 05:50:00,32.4,11.9,30.07,WSW,249,5.4,9.2,42,0.00,,CLR,0.00,VWS V14.01,2013-03-31 11:50:00,
2013-03-31 05:55:00,31.8,11.4,30.07,WSW,245,5.8,9.2,42,0.00,,CLR,0.00,VWS V14.01,2013-03-31 11:55:00,
2013-03-31 06:00:00,31.6,11.7,30.07,WSW,240,6.7,10.1,43,0.00,,CLR,0.00,VWS V14.01,2013-03-31 12:00:00,
2013-03-31 06:05:00,32.2,11.7,30.07,WSW,249,7.6,8.7,42,0.00,,CLR,0.00,VWS V14.01,2013-03-31 12:05:00,
2013-03-31 06:10:00,32.0,12.1,30.07,WSW,247,6.7,8.7,43,0.00,,CLR,0.00,VWS V14.01,2013-03-31 12:10:00,
2013-03-31 06:15:00,32.0,11.5,30.07,WSW,239,7.2,8.7,42,0.00,,CLR,0.00,VWS V14.01,2013-03-31 12:15:00,
2013-03-31 06:20:00,31.3,11.4,30.07,WSW,239,6.3,8.7,43,0.00,,CLR,0.00,VWS V14.01,2013-03-31 12:20:00,
2013-03-31 06:25:00,30.9,11.6,30.07,SW,236,5.8,8.7,44,0.00,,CLR,0.00,VWS V14.01,2013-03-31 12:25:00,
2013-03-31 06:30:00,30.7,11.4,30.07,SW,234,6.3,8.7,44,0.00,,CLR,0.00,VWS V14.01,2013-03-31 12:30:00,
2013-03-31 06:35:00,30.9,11.6,30.07,WSW,244,7.6,8.3,44,0.00,,CLR,0.00,VWS V14.01,2013-03-31 12:35:00,
2013-03-31 06:40:00,31.8,12.4,30.07,WSW,249,7.6,10.1,44,0.00,,CLR,0.00,VWS V14.01,2013-03-31 12:40:00,
2013-03-31 06:45:00,31.6,12.2,30.07,WSW,253,8.1,10.1,44,0.00,,CLR,0.00,VWS V14.01,2013-03-31 12:45:00,
2013-03-31 06:50:00,30.4,11.6,30.07,WSW,254,5.8,10.1,45,0.00,,CLR,0.00,VWS V14.01,2013-03-31 12:50:00,
2013-03-31 06:55:00,30.7,12.4,30.07,WSW,241,7.6,10.1,46,0.00,,CLR,0.00,VWS V14.01,2013-03-31 12:55:00,
2013-03-31 07:00:00,30.9,12.1,30.07,WSW,251,6.7,10.1,45,0.00,,CLR,0.00,VWS V14.01,2013-03-31 13:00:00,
2013-03-31 07:05:00,31.5,12.6,30.07,WSW,250,9.6,10.5,45,0.00,,CLR,0.00,VWS V14.01,2013-03-31 13:05:00,
2013-03-31 07:10:00,32.9,13.4,30.07,WSW,244,10.5,10.5,44,0.00,,CLR,0.00,VWS V14.01,2013-03-31 13:10:00,
2013-03-31 07:15:00,34.2,13.5,30.07,WSW,258,8.1,10.5,42,0.00,,CLR,0.00,VWS V14.01,2013-03-31 13:15:00,
2013-03-31 07:20:00,34.2,13.5,30.07,WSW,243,8.7,10.5,42,0.00,,CLR,0.00,VWS V14.01,2013-03-31 13:20:00,
2013-03-31 07:25:00,34.5,13.8,30.07,WSW,244,10.5,12.3,42,0.00,,CLR,0.00,VWS V14.01,2013-03-31 13:25:00,
2013-03-31 07:30:00,35.8,14.4,30.07,SW,233,10.5,15.0,41,0.00,,CLR,0.00,VWS V14.01,2013-03-31 13:30:00,
2013-03-31 07:35:00,36.3,14.9,30.07,WSW,248,11.0,11.9,41,0.00,,CLR,0.00,VWS V14.01,2013-03-31 13:35:00,
2013-03-31 07:40:00,37.0,15.0,30.07,WSW,242,7.6,13.2,40,0.00,,CLR,0.00,VWS V14.01,2013-03-31 13:40:00,
2013-03-31 07:45:00,37.8,15.6,30.07,WSW,257,8.3,13.2,40,0.00,,CLR,0.00,VWS V14.01,2013-03-31 13:45:00,
2013-03-31 07:50:00,38.7,16.4,30.07,WSW,237,5.4,13.2,40,0.00,,CLR,0.00,VWS V14.01,2013-03-31 13:50:00,
2013-03-31 07:55:00,39.4,16.5,30.07,West,267,5.4,13.2,39,0.00,,CLR,0.00,VWS V14.01,2013-03-31 13:55:00,
2013-03-31 08:00:00,40.1,17.1,30.10,West,265,3.1,13.2,39,0.00,,CLR,0.00,VWS V14.01,2013-03-31 14:00:00,
2013-03-31 08:05:00,40.5,17.5,30.10,SW,229,8.3,10.1,39,0.00,,CLR,0.00,VWS V14.01,2013-03-31 14:05:00,
2013-03-31 08:10:00,41.2,17.5,30.10,SW,228,6.7,10.5,38,0.00,,CLR,0.00,VWS V14.01,2013-03-31 14:10:00,
2013-03-31 08:15:00,42.1,17.7,30.10,WSW,247,8.3,10.5,37,0.00,,CLR,0.00,VWS V14.01,2013-03-31 14:15:00,
2013-03-31 08:20:00,43.9,18.0,30.10,SW,231,5.8,10.5,35,0.00,,CLR,0.00,VWS V14.01,2013-03-31 14:20:00,
2013-03-31 08:25:00,45.5,19.5,30.10,SW,227,5.8,10.5,35,0.00,,CLR,0.00,VWS V14.01,2013-03-31 14:25:00,
2013-03-31 08:30:00,47.3,20.4,30.10,WSW,246,4.0,10.5,34,0.00,,CLR,0.00,VWS V14.01,2013-03-31 14:30:00,
2013-03-31 08:35:00,48.4,20.6,30.10,SW,227,3.1,4.9,33,0.00,,CLR,0.00,VWS V14.01,2013-03-31 14:35:00,
2013-03-31 08:40:00,50.2,20.7,30.10,West,263,2.2,4.9,31,0.00,,CLR,0.00,VWS V14.01,2013-03-31 14:40:00,
2013-03-31 08:45:00,52.9,23.1,30.10,WSW,252,0.0,4.9,31,0.00,,CLR,0.00,VWS V14.01,2013-03-31 14:45:00,
2013-03-31 08:50:00,55.2,23.5,30.10,West,259,0.0,4.9,29,0.00,,CLR,0.00,VWS V14.01,2013-03-31 14:50:00,
2013-03-31 08:55:00,54.5,21.2,30.10,South,169,3.6,5.4,27,0.00,,CLR,0.00,VWS V14.01,2013-03-31 14:55:00,
2013-03-31 09:00:00,54.3,21.9,30.10,NE,48,2.7,5.4,28,0.00,,CLR,0.00,VWS V14.01,2013-03-31 15:00:00,
2013-03-31 09:05:00,54.7,21.4,30.10,ESE,104,4.0,4.0,27,0.00,,CLR,0.00,VWS V14.01,2013-03-31 15:05:00,
2013-03-31 09:10:00,55.8,22.3,30.10,NNE,18,4.9,4.9,27,0.00,,CLR,0.00,VWS V14.01,2013-03-31 15:10:00,
2013-03-31 09:15:00,55.6,22.1,30.10,ENE,69,3.1,4.9,27,0.00,,CLR,0.00,VWS V14.01,2013-03-31 15:15:00,
2013-03-31 09:20:00,55.2,21.8,30.10,North,3,2.7,4.9,27,0.00,,CLR,0.00,VWS V14.01,2013-03-31 15:20:00,
2013-03-31 09:25:00,54.5,21.2,30.10,NNE,25,4.0,5.8,27,0.00,,CLR,0.00,VWS V14.01,2013-03-31 15:25:00,
2013-03-31 09:30:00,53.6,20.5,30.10,NW,324,3.1,5.8,27,0.00,,CLR,0.00,VWS V14.01,2013-03-31 15:30:00,
2013-03-31 09:35:00,50.5,19.5,30.10,NNW,341,0.0,4.9,29,0.00,,CLR,0.00,VWS V14.01,2013-03-31 15:35:00,
2013-03-31 09:40:00,50.5,18.7,30.10,North,7,2.7,4.9,28,0.00,,CLR,0.00,VWS V14.01,2013-03-31 15:40:00,
2013-03-31 09:45:00,52.9,20.7,30.10,North,357,3.6,5.8,28,0.00,,CLR,0.00,VWS V14.01,2013-03-31 15:45:00,
2013-03-31 09:50:00,50.7,18.8,30.10,North,8,4.5,5.8,28,0.00,,CLR,0.00,VWS V14.01,2013-03-31 15:50:00,
2013-03-31 09:55:00,48.6,17.8,30.10,North,357,4.0,5.8,29,0.00,,CLR,0.00,VWS V14.01,2013-03-31 15:55:00,
2013-03-31 10:00:00,49.1,19.0,30.10,North,8,2.7,6.3,30,0.00,,CLR,0.00,VWS V14.01,2013-03-31 16:00:00,
2013-03-31 10:05:00,52.2,20.9,30.10,NNE,26,5.8,6.3,29,0.00,,CLR,0.00,VWS V14.01,2013-03-31 16:05:00,
2013-03-31 10:10:00,53.2,21.0,30.10,North,353,5.4,6.3,28,0.00,,CLR,0.00,VWS V14.01,2013-03-31 16:10:00,
2013-03-31 10:15:00,51.6,20.4,30.10,North,357,5.8,8.1,29,0.00,,CLR,0.00,VWS V14.01,2013-03-31 16:15:00,
2013-03-31 10:20:00,49.6,18.7,30.10,NNE,29,5.4,8.1,29,0.00,,CLR,0.00,VWS V14.01,2013-03-31 16:20:00,
2013-03-31 10:25:00,50.5,19.5,30.10,NNE,15,2.7,8.1,29,0.00,,CLR,0.00,VWS V14.01,2013-03-31 16:25:00,
2013-03-31 10:30:00,51.4,20.3,30.10,NNW,328,2.2,8.1,29,0.00,,CLR,0.00,VWS V14.01,2013-03-31 16:30:00,
2013-03-31 10:35:00,49.1,18.2,30.10,NW,325,2.7,5.8,29,0.00,,CLR,0.00,VWS V14.01,2013-03-31 16:35:00,
2013-03-31 10:40:00,48.6,18.5,30.10,NW,316,5.8,5.8,30,0.00,,CLR,0.00,VWS V14.01,2013-03-31 16:40:00,
2013-03-31 10:45:00,47.7,18.5,30.10,North,0,5.4,7.6,31,0.00,,CLR,0.00,VWS V14.01,2013-03-31 16:45:00,
2013-03-31 10:50:00,48.9,18.9,30.10,NE,39,3.6,7.6,30,0.00,,CLR,0.00,VWS V14.01,2013-03-31 16:50:00,
2013-03-31 10:55:00,47.8,17.9,30.10,North,3,4.9,7.6,30,0.00,,CLR,0.00,VWS V14.01,2013-03-31 16:55:00,
2013-03-31 11:00:00,47.3,19.0,30.10,NNW,333,7.6,9.6,32,0.00,,CLR,0.00,VWS V14.01,2013-03-31 17:00:00,
2013-03-31 11:05:00,46.9,17.9,30.10,North,5,5.4,10.5,31,0.00,,CLR,0.00,VWS V14.01,2013-03-31 17:05:00,
2013-03-31 11:10:00,46.9,20.0,30.10,NNE,20,6.3,10.5,34,0.00,,CLR,0.00,VWS V14.01,2013-03-31 17:10:00,
2013-03-31 11:15:00,46.6,19.7,30.10,NNW,339,8.1,10.5,34,0.00,,CLR,0.00,VWS V14.01,2013-03-31 17:15:00,
2013-03-31 11:20:00,46.8,20.6,30.10,NW,307,7.6,10.5,35,0.00,,CLR,0.00,VWS V14.01,2013-03-31 17:20:00,
2013-03-31 11:25:00,46.0,19.9,30.10,NNE,31,5.8,12.3,35,0.00,,CLR,0.00,VWS V14.01,2013-03-31 17:25:00,
2013-03-31 11:30:00,46.4,20.9,30.10,NW,325,8.1,12.3,36,0.00,,CLR,0.00,VWS V14.01,2013-03-31 17:30:00,
2013-03-31 11:35:00,47.5,21.9,30.10,NNW,338,12.8,14.5,36,0.00,,CLR,0.00,VWS V14.01,2013-03-31 17:35:00,
2013-03-31 11:40:00,47.3,21.0,30.10,NNW,338,8.1,14.5,35,0.00,,CLR,0.00,VWS V14.01,2013-03-31 17:40:00,
2013-03-31 11:45:00,47.8,20.9,30.13,NW,308,12.8,14.5,34,0.00,,CLR,0.00,VWS V14.01,2013-03-31 17:45:00,
2013-03-31 11:50:00,47.8,20.9,30.13,NW,317,5.8,14.5,34,0.00,,CLR,0.00,VWS V14.01,2013-03-31 17:50:00,
2013-03-31 11:55:00,47.8,20.9,30.13,WNW,293,8.3,14.5,34,0.00,,CLR,0.00,VWS V14.01,2013-03-31 17:55:00,
2013-03-31 12:00:00,48.0,21.0,30.13,North,0,6.3,14.5,34,0.00,,CLR,0.00,VWS V14.01,2013-03-31 18:00:00,
2013-03-31 12:05:00,48.7,20.9,30.13,NW,323,10.1,12.8,33,0.00,,CLR,0.00,VWS V14.01,2013-03-31 18:05:00,
2013-03-31 12:10:00,48.7,20.9,30.13,NNW,331,7.2,12.8,33,0.00,,CLR,0.00,VWS V14.01,2013-03-31 18:10:00,
2013-03-31 12:15:00,49.3,21.4,30.13,NNW,334,8.3,13.2,33,0.00,,CLR,0.00,VWS V14.01,2013-03-31 18:15:00,
2013-03-31 12:20:00,49.5,21.6,30.13,NW,307,11.0,15.0,33,0.00,,CLR,0.00,VWS V14.01,2013-03-31 18:20:00,
2013-03-31 12:25:00,49.3,19.9,30.13,North,349,11.0,15.0,31,0.00,,CLR,0.00,VWS V14.01,2013-03-31 18:25:00,
2013-03-31 12:30:00,49.3,19.9,30.13,NNW,331,11.0,15.0,31,0.00,,CLR,0.00,VWS V14.01,2013-03-31 18:30:00,
2013-03-31 12:35:00,49.1,20.5,30.13,North,4,8.1,17.4,32,0.00,,CLR,0.00,VWS V14.01,2013-03-31 18:35:00,
2013-03-31 12:40:00,48.9,19.6,30.13,NNW,340,12.3,17.4,31,0.00,,CLR,0.00,VWS V14.01,2013-03-31 18:40:00,
2013-03-31 12:45:00,48.9,19.6,30.13,North,8,8.7,17.4,31,0.00,,CLR,0.00,VWS V14.01,2013-03-31 18:45:00,
2013-03-31 12:50:00,49.5,20.1,30.13,NNW,335,11.0,17.4,31,0.00,,CLR,0.00,VWS V14.01,2013-03-31 18:50:00,
2013-03-31 12:55:00,49.5,20.1,30.13,North,357,6.3,17.4,31,0.00,,CLR,0.00,VWS V14.01,2013-03-31 18:55:00,
2013-03-31 13:00:00,50.0,19.8,30.13,North,7,8.3,17.4,30,0.00,,CLR,0.00,VWS V14.01,2013-03-31 19:00:00,
2013-03-31 13:05:00,49.8,20.4,30.13,NNW,340,8.7,12.8,31,0.00,,CLR,0.00,VWS V14.01,2013-03-31 19:05:00,
2013-03-31 13:10:00,49.6,20.3,30.13,North,357,7.6,13.2,31,0.00,,CLR,0.00,VWS V14.01,2013-03-31 19:10:00,
2013-03-31 13:15:00,49.5,20.1,30.13,NNW,343,8.1,13.2,31,0.00,,CLR,0.00,VWS V14.01,2013-03-31 19:15:00,
2013-03-31 13:20:00,50.9,21.4,30.13,North,353,6.3,17.4,31,0.00,,CLR,0.00,VWS V14.01,2013-03-31 19:20:00,
2013-03-31 13:25:00,50.7,20.4,30.13,NNW,335,7.6,17.4,30,0.00,,CLR,0.00,VWS V14.01,2013-03-31 19:25:00,
2013-03-31 13:30:00,50.7,21.2,30.13,NNW,345,8.7,17.4,31,0.00,,CLR,0.00,VWS V14.01,2013-03-31 19:30:00,
2013-03-31 13:35:00,50.0,20.6,30.13,NNW,332,15.0,15.4,31,0.00,,CLR,0.00,VWS V14.01,2013-03-31 19:35:00,
2013-03-31 13:40:00,50.5,21.0,30.13,NNW,345,10.5,15.4,31,0.00,,CLR,0.00,VWS V14.01,2013-03-31 19:40:00,
2013-03-31 13:45:00,50.7,21.2,30.13,North,353,11.0,15.4,31,0.00,,CLR,0.00,VWS V14.01,2013-03-31 19:45:00,
2013-03-31 13:50:00,51.1,22.3,30.13,NNE,19,10.1,15.4,32,0.00,,CLR,0.00,VWS V14.01,2013-03-31 19:50:00,
2013-03-31 13:55:00,50.9,21.4,30.13,NNW,344,14.1,15.4,31,0.00,,CLR,0.00,VWS V14.01,2013-03-31 19:55:00,
2013-03-31 14:00:00,49.8,21.2,30.13,North,357,10.1,15.4,32,0.00,,CLR,0.00,VWS V14.01,2013-03-31 20:00:00,
2013-03-31 14:05:00,50.0,20.6,30.13,NW,316,11.9,12.8,31,0.00,,CLR,0.00,VWS V14.01,2013-03-31 20:05:00,
2013-03-31 14:10:00,51.6,22.7,30.13,North,357,11.0,13.6,32,0.00,,CLR,0.00,VWS V14.01,2013-03-31 20:10:00,
2013-03-31 14:15:00,50.7,21.2,30.13,NNW,338,7.6,15.0,31,0.00,,CLR,0.00,VWS V14.01,2013-03-31 20:15:00,
2013-03-31 14:20:00,50.9,21.4,30.13,NW,312,11.0,15.0,31,0.00,,CLR,0.00,VWS V14.01,2013-03-31 20:20:00,
2013-03-31 14:25:00,52.2,22.5,30.13,North,1,10.5,15.0,31,0.00,,CLR,0.00,VWS V14.01,2013-03-31 20:25:00,
2013-03-31 14:30:00,50.5,21.0,30.13,NNW,327,8.7,16.8,31,0.00,,CLR,0.00,VWS V14.01,2013-03-31 20:30:00,
2013-03-31 14:35:00,50.9,21.4,30.13,NW,315,10.1,13.2,31,0.00,,CLR,0.00,VWS V14.01,2013-03-31 20:35:00,
2013-03-31 14:40:00,51.1,21.5,30.13,North,10,8.7,14.5,31,0.00,,CLR,0.00,VWS V14.01,2013-03-31 20:40:00,
2013-03-31 14:45:00,50.4,20.9,30.13,NW,325,10.5,15.4,31,0.00,,CLR,0.00,VWS V14.01,2013-03-31 20:45:00,
2013-03-31 14:50:00,50.4,21.6,30.13,North,6,11.0,15.4,32,0.00,,CLR,0.00,VWS V14.01,2013-03-31 20:50:00,
2013-03-31 14:55:00,49.6,21.7,30.13,NNE,16,8.7,15.4,33,0.00,,CLR,0.00,VWS V14.01,2013-03-31 20:55:00,
2013-03-31 15:00:00,49.3,20.7,30.13,North,11,11.0,15.4,32,0.00,,CLR,0.00,VWS V14.01,2013-03-31 21:00:00,
2013-03-31 15:05:00,48.7,20.2,30.13,NNW,340,7.6,12.3,32,0.00,,CLR,0.00,VWS V14.01,2013-03-31 21:05:00,
2013-03-31 15:10:00,50.9,22.1,30.13,NNE,26,6.3,12.3,32,0.00,,CLR,0.00,VWS V14.01,2013-03-31 21:10:00,
2013-03-31 15:15:00,50.4,20.9,30.13,North,0,5.4,12.3,31,0.00,,CLR,0.00,VWS V14.01,2013-03-31 21:15:00,
2013-03-31 15:20:00,50.5,21.0,30.13,NNW,335,10.5,13.2,31,0.00,,CLR,0.00,VWS V14.01,2013-03-31 21:20:00,
2013-03-31 15:25:00,51.6,22.0,30.13,NNE,18,10.5,13.2,31,0.00,,CLR,0.00,VWS V14.01,2013-03-31 21:25:00,
2013-03-31 15:30:00,52.0,21.5,30.13,NNE,28,8.3,17.0,30,0.00,,CLR,0.00,VWS V14.01,2013-03-31 21:30:00,
2013-03-31 15:35:00,54.5,23.7,30.13,North,0,8.1,15.4,30,0.00,,CLR,0.00,VWS V14.01,2013-03-31 21:35:00,
2013-03-31 15:40:00,52.2,20.9,30.13,North,357,10.5,15.4,29,0.00,,CLR,0.00,VWS V14.01,2013-03-31 21:40:00,
2013-03-31 15:45:00,49.8,20.4,30.13,North,10,10.1,15.4,31,0.00,,CLR,0.00,VWS V14.01,2013-03-31 21:45:00,
2013-03-31 15:50:00,48.9,19.6,30.13,NNW,341,5.8,15.4,31,0.00,,CLR,0.00,VWS V14.01,2013-03-31 21:50:00,
2013-03-31 15:55:00,48.0,19.6,30.13,North,9,10.1,15.4,32,0.00,,CLR,0.00,VWS V14.01,2013-03-31 21:55:00,
2013-03-31 16:00:00,48.2,20.5,30.13,NNE,16,5.4,15.4,33,0.00,,CLR,0.00,VWS V14.01,2013-03-31 22:00:00,
2013-03-31 16:05:00,48.0,19.6,30.13,North,350,6.3,7.6,32,0.00,,CLR,0.00,VWS V14.01,2013-03-31 22:05:00,
2013-03-31 16:10:00,50.2,20.7,30.13,North,353,4.9,12.3,31,0.00,,CLR,0.00,VWS V14.01,2013-03-31 22:10:00,
2013-03-31 16:15:00,49.3,19.9,30.13,NNW,327,3.6,12.8,31,0.00,,CLR,0.00,VWS V14.01,2013-03-31 22:15:00,
2013-03-31 16:20:00,48.9,20.4,30.13,North,10,8.1,12.8,32,0.00,,CLR,0.00,VWS V14.01,2013-03-31 22:20:00,
2013-03-31 16:25:00,49.5,20.1,30.13,North,9,10.5,12.8,31,0.00,,CLR,0.00,VWS V14.01,2013-03-31 22:25:00,
2013-03-31 16:30:00,50.2,20.7,30.13,NNW,339,7.6,13.2,31,0.00,,CLR,0.00,VWS V14.01,2013-03-31 22:30:00,
2013-03-31 16:35:00,48.2,19.7,30.13,NNW,329,8.7,12.8,32,0.00,,CLR,0.00,VWS V14.01,2013-03-31 22:35:00,
2013-03-31 16:40:00,46.8,18.5,30.13,NNE,16,8.3,12.8,32,0.00,,CLR,0.00,VWS V14.01,2013-03-31 22:40:00,
2013-03-31 16:45:00,46.4,18.2,30.13,NNE,19,10.1,13.2,32,0.00,,CLR,0.00,VWS V14.01,2013-03-31 22:45:00,
2013-03-31 16:50:00,48.6,19.3,30.13,North,0,3.6,13.2,31,0.00,,CLR,0.00,VWS V14.01,2013-03-31 22:50:00,
2013-03-31 16:55:00,50.4,20.1,30.13,North,357,8.1,13.2,30,0.00,,CLR,0.00,VWS V14.01,2013-03-31 22:55:00,
2013-03-31 17:00:00,50.2,20.7,30.13,North,0,8.1,13.2,31,0.00,,CLR,0.00,VWS V14.01,2013-03-31 23:00:00,
2013-03-31 17:05:00,47.7,19.3,30.13,NNE,23,8.1,12.8,32,0.00,,CLR,0.00,VWS V14.01,2013-03-31 23:05:00,
2013-03-31 17:10:00,46.8,19.2,30.13,North,9,6.3,14.1,33,0.00,,CLR,0.00,VWS V14.01,2013-03-31 23:10:00,
2013-03-31 17:15:00,45.7,18.9,30.13,North,5,7.6,14.1,34,0.00,,CLR,0.00,VWS V14.01,2013-03-31 23:15:00,
2013-03-31 17:20:00,45.3,19.3,30.13,North,353,6.3,14.1,35,0.00,,CLR,0.00,VWS V14.01,2013-03-31 23:20:00,
2013-03-31 17:25:00,44.8,20.1,30.13,North,353,8.1,14.1,37,0.00,,CLR,0.00,VWS V14.01,2013-03-31 23:25:00,
2013-03-31 17:30:00,44.6,20.0,30.13,NNE,20,10.1,14.1,37,0.00,,CLR,0.00,VWS V14.01,2013-03-31 23:30:00,
2013-03-31 17:35:00,44.6,20.0,30.13,NNE,16,5.8,15.0,37,0.00,,CLR,0.00,VWS V14.01,2013-03-31 23:35:00,
2013-03-31 17:40:00,44.2,20.3,30.13,NNE,14,8.3,15.0,38,0.00,,CLR,0.00,VWS V14.01,2013-03-31 23:40:00,
2013-03-31 17:45:00,43.9,19.9,30.13,North,4,5.4,15.0,38,0.00,,CLR,0.00,VWS V14.01,2013-03-31 23:45:00,
2013-03-31 17:50:00,43.3,20.1,30.13,North,357,4.9,15.0,39,0.00,,CLR,0.00,VWS V14.01,2013-03-31 23:50:00,
2013-03-31 17:55:00,43.0,19.7,30.13,North,0,7.6,15.0,39,0.00,,CLR,0.00,VWS V14.01,2013-03-31 23:55:00,
2013-03-31 18:00:00,42.4,20.4,30.13,North,3,8.3,15.0,41,0.00,,CLR,0.00,VWS V14.01,2013-04-01 00:00:00,
2013-03-31 18:05:00,43.5,21.4,30.13,NNE,21,4.9,7.6,41,0.00,,CLR,0.00,VWS V14.01,2013-04-01 00:05:00,
2013-03-31 18:10:00,43.5,20.2,30.13,North,11,8.3,10.5,39,0.00,,CLR,0.00,VWS V14.01,2013-04-01 00:10:00,
2013-03-31 18:15:00,44.8,21.4,30.13,North,349,6.3,10.5,39,0.00,,CLR,0.00,VWS V14.01,2013-04-01 00:15:00,
2013-03-31 18:20:00,45.3,21.8,30.13,NNE,15,8.3,10.5,39,0.00,,CLR,0.00,VWS V14.01,2013-04-01 00:20:00,
2013-03-31 18:25:00,45.9,21.7,30.13,North,353,3.6,10.5,38,0.00,,CLR,0.00,VWS V14.01,2013-04-01 00:25:00,
2013-03-31 18:30:00,45.5,21.4,30.13,NNE,18,6.3,10.5,38,0.00,,CLR,0.00,VWS V14.01,2013-04-01 00:30:00,
2013-03-31 18:35:00,46.2,22.0,30.13,NNW,346,4.0,8.7,38,0.00,,CLR,0.00,VWS V14.01,2013-04-01 00:35:00,
2013-03-31 18:40:00,46.2,22.0,30.13,North,353,5.8,8.7,38,0.00,,CLR,0.00,VWS V14.01,2013-04-01 00:40:00,
2013-03-31 18:45:00,46.2,21.4,30.13,NE,35,8.1,8.7,37,0.00,,CLR,0.00,VWS V14.01,2013-04-01 00:45:00,
2013-03-31 18:50:00,43.3,20.1,30.13,NE,35,7.6,8.7,39,0.00,,CLR,0.00,VWS V14.01,2013-04-01 00:50:00,
2013-03-31 18:55:00,41.5,19.0,30.13,North,357,5.4,10.5,40,0.00,,CLR,0.00,VWS V14.01,2013-04-01 00:55:00,
2013-03-31 19:00:00,40.6,19.4,30.13,NNE,17,5.8,10.5,42,0.00,,CLR,0.00,VWS V14.01,2013-04-01 01:00:00,
2013-03-31 19:05:00,39.9,20.3,30.13,NNW,341,4.0,5.4,45,0.00,,CLR,0.00,VWS V14.01,2013-04-01 01:05:00,
2013-03-31 19:10:00,39.4,20.3,30.13,NW,314,4.9,5.8,46,0.00,,CLR,0.00,VWS V14.01,2013-04-01 01:10:00,
2013-03-31 19:15:00,38.5,20.5,30.13,NNW,343,0.0,5.8,48,0.00,,CLR,0.00,VWS V14.01,2013-04-01 01:15:00,
2013-03-31 19:20:00,37.9,20.5,30.13,NNW,331,3.1,5.8,49,0.00,,CLR,0.00,VWS V14.01,2013-04-01 01:20:00,
2013-03-31 19:25:00,37.4,20.9,30.13,NW,319,4.9,5.8,51,0.00,,CLR,0.00,VWS V14.01,2013-04-01 01:25:00,
2013-03-31 19:30:00,37.4,20.5,30.13,NW,315,5.4,5.8,50,0.00,,CLR,0.00,VWS V14.01,2013-04-01 01:30:00,
2013-03-31 19:35:00,36.9,20.4,30.13,WNW,300,4.0,5.8,51,0.00,,CLR,0.00,VWS V14.01,2013-04-01 01:35:00,
2013-03-31 19:40:00,36.7,20.3,30.13,NW,313,5.4,5.8,51,0.00,,CLR,0.00,VWS V14.01,2013-04-01 01:40:00,
2013-03-31 19:45:00,36.1,20.2,30.13,NW,317,5.4,6.3,52,0.00,,CLR,0.00,VWS V14.01,2013-04-01 01:45:00,
2013-03-31 19:50:00,36.0,19.6,30.13,NNW,339,4.0,6.3,51,0.00,,CLR,0.00,VWS V14.01,2013-04-01 01:50:00,
2013-03-31 19:55:00,35.1,19.2,30.13,North,353,6.3,7.6,52,0.00,,CLR,0.00,VWS V14.01,2013-04-01 01:55:00,
2013-03-31 20:00:00,35.2,19.8,30.13,NW,310,5.4,7.6,53,0.00,,CLR,0.00,VWS V14.01,2013-04-01 02:00:00,
2013-03-31 20:05:00,35.2,19.4,30.13,NW,304,4.9,7.2,52,0.00,,CLR,0.00,VWS V14.01,2013-04-01 02:05:00,
2013-03-31 20:10:00,34.7,19.3,30.13,NW,313,3.6,7.2,53,0.00,,CLR,0.00,VWS V14.01,2013-04-01 02:10:00,
2013-03-31 20:15:00,34.3,19.0,30.13,NNW,331,3.6,7.2,53,0.00,,CLR,0.00,VWS V14.01,2013-04-01 02:15:00,
2013-03-31 20:20:00,35.1,19.2,30.13,NW,312,4.0,7.2,52,0.00,,CLR,0.00,VWS V14.01,2013-04-01 02:20:00,
2013-03-31 20:25:00,34.7,18.9,30.13,NW,308,4.9,7.2,52,0.00,,CLR,0.00,VWS V14.01,2013-04-01 02:25:00,
2013-03-31 20:30:00,34.3,19.0,30.13,NW,314,5.4,7.2,53,0.00,,CLR,0.00,VWS V14.01,2013-04-01 02:30:00,
2013-03-31 20:35:00,34.0,19.1,30.13,NW,308,4.9,6.3,54,0.00,,CLR,0.00,VWS V14.01,2013-04-01 02:35:00,
2013-03-31 20:40:00,33.6,19.2,30.13,NW,317,5.4,6.3,55,0.00,,CLR,0.00,VWS V14.01,2013-04-01 02:40:00,
2013-03-31 20:45:00,33.8,18.5,30.13,NW,318,3.6,6.3,53,0.00,,CLR,0.00,VWS V14.01,2013-04-01 02:45:00,
2013-03-31 20:50:00,33.6,18.8,30.13,WNW,302,4.0,6.3,54,0.00,,CLR,0.00,VWS V14.01,2013-04-01 02:50:00,
2013-03-31 20:55:00,34.0,18.2,30.13,WNW,296,4.9,6.3,52,0.00,,CLR,0.00,VWS V14.01,2013-04-01 02:55:00,
2013-03-31 21:00:00,33.8,18.0,30.16,NW,308,5.4,6.3,52,0.00,,CLR,0.00,VWS V14.01,2013-04-01 03:00:00,
2013-03-31 21:05:00,34.0,18.2,30.16,NW,307,5.4,6.3,52,0.00,,CLR,0.00,VWS V14.01,2013-04-01 03:05:00,
2013-03-31 21:10:00,33.4,18.2,30.16,NNW,337,4.9,6.3,53,0.00,,CLR,0.00,VWS V14.01,2013-04-01 03:10:00,
2013-03-31 21:15:00,32.9,18.1,30.16,NNW,331,4.0,6.3,54,0.00,,CLR,0.00,VWS V14.01,2013-04-01 03:15:00,
2013-03-31 21:20:00,32.0,18.1,30.16,NNW,332,0.0,6.3,56,0.00,,CLR,0.00,VWS V14.01,2013-04-01 03:20:00,
2013-03-31 21:25:00,32.2,18.3,30.16,NNW,333,4.0,6.3,56,0.00,,CLR,0.00,VWS V14.01,2013-04-01 03:25:00,
2013-03-31 21:30:00,32.5,18.2,30.16,NNW,339,3.1,6.3,55,0.00,,CLR,0.00,VWS V14.01,2013-04-01 03:30:00,
2013-03-31 21:35:00,32.2,17.8,30.16,NW,318,4.5,4.5,55,0.00,,CLR,0.00,VWS V14.01,2013-04-01 03:35:00,
2013-03-31 21:40:00,31.8,17.9,30.16,WNW,300,4.0,5.4,56,0.00,,CLR,0.00,VWS V14.01,2013-04-01 03:40:00,
2013-03-31 21:45:00,30.7,16.5,30.16,West,280,2.7,5.4,55,0.00,,CLR,0.00,VWS V14.01,2013-04-01 03:45:00,
2013-03-31 21:50:00,29.3,16.8,30.16,SW,224,3.6,5.4,59,0.00,,CLR,0.00,VWS V14.01,2013-04-01 03:50:00,
2013-03-31 21:55:00,28.9,17.9,30.16,SW,226,5.4,5.4,63,0.00,,CLR,0.00,VWS V14.01,2013-04-01 03:55:00,
2013-03-31 22:00:00,28.4,18.1,30.16,WSW,250,3.6,5.4,65,0.00,,CLR,0.00,VWS V14.01,2013-04-01 04:00:00,
2013-03-31 22:05:00,27.3,18.5,30.16,WSW,257,4.0,4.5,69,0.00,,CLR,0.00,VWS V14.01,2013-04-01 04:05:00,
2013-03-31 22:10:00,27.0,19.1,30.16,WSW,253,4.0,6.3,72,0.00,,CLR,0.00,VWS V14.01,2013-04-01 04:10:00,
2013-03-31 22:12:00,26.8,19.0,30.16,WSW,257,5.4,6.3,72,0.00,,CLR,0.00,VWS V14.01,2013-04-01 04:12:00,
2013-03-31 22:17:00,25.9,18.4,30.16,WSW,258,5.4,6.3,73,0.00,,CLR,0.00,VWS V14.01,2013-04-01 04:17:00,
2013-03-31 22:22:00,25.3,18.5,30.16,WSW,243,5.8,6.3,75,0.00,,CLR,0.00,VWS V14.01,2013-04-01 04:22:00,
2013-03-31 22:27:00,25.9,19.1,30.16,WSW,247,5.8,6.3,75,0.00,,CLR,0.00,VWS V14.01,2013-04-01 04:27:00,
2013-03-31 22:32:00,26.1,19.2,30.16,WSW,250,5.4,5.4,75,0.00,,CLR,0.00,VWS V14.01,2013-04-01 04:32:00,
2013-03-31 22:37:00,26.1,19.2,30.16,WSW,246,5.4,6.3,75,0.00,,CLR,0.00,VWS V14.01,2013-04-01 04:37:00,
2013-03-31 22:42:00,26.1,19.2,30.16,WSW,248,6.3,6.3,75,0.00,,CLR,0.00,VWS V14.01,2013-04-01 04:42:00,
2013-03-31 22:47:00,26.1,19.2,30.16,WSW,247,5.8,7.6,75,0.00,,CLR,0.00,VWS V14.01,2013-04-01 04:47:00,
2013-03-31 22:52:00,25.9,19.1,30.16,SW,235,5.4,7.6,75,0.00,,CLR,0.00,VWS V14.01,2013-04-01 04:52:00,
2013-03-31 22:57:00,26.1,19.2,30.16,WSW,248,4.9,7.6,75,0.00,,CLR,0.00,VWS V14.01,2013-04-01 04:57:00,
2013-03-31 23:02:00,25.9,19.4,30.16,WSW,240,5.8,6.3,76,0.00,,CLR,0.00,VWS V14.01,2013-04-01 05:02:00,
2013-03-31 23:07:00,25.7,19.5,30.16,WSW,239,5.8,6.3,77,0.00,,CLR,0.00,VWS V14.01,2013-04-01 05:07:00,
2013-03-31 23:12:00,25.5,19.3,30.16,WSW,245,5.4,6.7,77,0.00,,CLR,0.00,VWS V14.01,2013-04-01 05:12:00,
2013-03-31 23:17:00,25.3,19.5,30.16,WSW,240,5.4,7.6,78,0.00,,CLR,0.00,VWS V14.01,2013-04-01 05:17:00,
2013-03-31 23:22:00,25.3,19.8,30.16,WSW,249,5.8,7.6,79,0.00,,CLR,0.00,VWS V14.01,2013-04-01 05:22:00,
2013-03-31 23:27:00,25.5,19.9,30.16,WSW,241,5.4,7.6,79,0.00,,CLR,0.00,VWS V14.01,2013-04-01 05:27:00,
2013-03-31 23:32:00,25.9,20.3,30.16,WSW,240,6.3,6.3,79,0.00,,CLR,0.00,VWS V14.01,2013-04-01 05:32:00,
2013-03-31 23:37:00,25.9,19.7,30.16,WSW,252,5.8,8.1,77,0.00,,CLR,0.00,VWS V14.01,2013-04-01 05:37:00,
2013-03-31 23:42:00,26.1,20.1,30.13,WSW,252,6.3,8.1,78,0.00,,CLR,0.00,VWS V14.01,2013-04-01 05:42:00,
2013-03-31 23:47:00,27.5,20.9,30.13,WSW,243,7.6,8.1,76,0.00,,CLR,0.00,VWS V14.01,2013-04-01 05:47:00,
2013-03-31 23:52:00,28.6,20.0,30.13,WSW,253,8.1,8.7,70,0.00,,CLR,0.00,VWS V14.01,2013-04-01 05:52:00,
2013-03-31 23:57:00,28.9,19.4,30.13,WSW,245,7.2,10.1,67,0.00,,CLR,0.00,VWS V14.01,2013-04-01 05:57:00,